Location: Aressy
(43.2833°N, 0.3167°W)
Time: 01:36:59
(UTC+00:00)

Meteor 2-19 Rocket - Pass Details

Date: 28 January 2021
Orbit: 935 x 959 km, 82.6° (Epoch: 08 March)

Event Time Altitude Azimuth Distance (km) Brightness Sun altitude
Rises 18:21:26 0° 180° (S) 3,626 7.6 -13.5°
Reaches altitude 10° 18:23:56 10° 178° (S) 2,684 6.9 -13.9°
Maximum altitude 18:30:03 73° 95° (E) 1,003 4.4 -15.0°
Drops below altitude 10° 18:36:12 10° 12° (NNE) 2,697 6.6 -16.1°
Sets 18:38:42 0° 11° (N) 3,644 7.3 -16.6°
